Everett, WA
on Wednesday, January 30, 2013

Wednesday
Previous Day Next Day
Daily Summary
 ActualAverageRecord
Temperature
Mean Temperature °F °F  
Max Temperature 48°F 46°F 56°F (1960)
Min Temperature 42°F 33°F 3°F (1950)
Degree Days
Heating Degree Days 20    
Moisture
Dew Point 44°F   
Average Humidity 93    
Maximum Humidity 100    
Minimum Humidity 86    
Precipitation
Precipitation 0.14 in in in ()
Wind
Wind Speed 5 mph   
Max Wind Speed 9 mph   
Max Gust Speed mph   
Visibility 3 miles   
Events Fog , Rain   
Averages and records for this station are not official NWS values.
Key: T is trace of precipitation, MM is missing value
Source: NWS Daily Summary
Seasonal Weather Averages
Time(PST)TemperatureDew PointHumidity Pressure Visibility Wind DirectionWind SpeedGust SpeedPrecipitationEvents Conditions
12:53 AM 44.1°F 42.1°F 93% 30.33 in 3.0 miles South 9.2 mph - 0.02 in Rain Light Rain
1:44 AM 44.6°F 42.8°F 93% 30.32 in 4.0 miles SSE 6.9 mph - 0.01 in Rain Light Rain
1:53 AM 44.1°F 42.1°F 93% 30.34 in 4.0 miles SSE 8.1 mph - 0.01 in   Overcast
2:53 AM 44.1°F 42.1°F 93% 30.34 in 4.0 miles SSE 5.8 mph - 0.01 in   Overcast
3:18 AM 44.6°F 42.8°F 93% 30.33 in 3.0 miles SSE 4.6 mph - N/A   Overcast
3:53 AM 44.6°F 42.8°F 93% 30.33 in 5.0 miles SSE 6.9 mph - N/A   Overcast
4:26 AM 44.6°F 42.8°F 93% 30.33 in 2.0 miles Variable 3.5 mph - N/A   Overcast
4:46 AM 42.8°F 41.0°F 93% 30.33 in 1.8 miles ESE 6.9 mph - 0.01 in Rain Light Rain
4:53 AM 43.0°F 42.1°F 97% 30.34 in 2.0 miles Calm Calm - 0.01 in Rain Light Rain
5:40 AM 44.6°F 42.8°F 93% 30.33 in 3.0 miles South 8.1 mph - 0.02 in Rain Light Rain
5:53 AM 45.0°F 43.0°F 93% 30.34 in 3.0 miles South 6.9 mph - 0.02 in Rain Light Rain
6:53 AM 45.0°F 43.0°F 93% 30.34 in 2.0 miles South 8.1 mph - 0.01 in   Overcast
7:51 AM 44.6°F 42.8°F 93% 30.35 in 0.2 miles SSW 3.5 mph - 0.00 in Fog , Rain Light Rain
7:53 AM 45.0°F 43.0°F 93% 30.36 in 0.2 miles SSW 3.5 mph - 0.00 in Fog , Rain Light Rain
8:53 AM 45.0°F 44.1°F 97% 30.37 in 0.2 miles South 4.6 mph - 0.00 in Fog Fog
9:00 AM 46.4°F 44.6°F 93% 30.36 in 1.0 miles South 4.6 mph - N/A   Overcast
9:53 AM 46.0°F 44.1°F 93% 30.38 in 0.2 miles South 5.8 mph - N/A Fog Fog
10:53 AM 46.9°F 45.0°F 93% 30.38 in 0.2 miles South 6.9 mph - N/A Fog Fog
11:00 AM 46.4°F 44.6°F 93% 30.37 in 0.5 miles South 4.6 mph - N/A Fog Fog
11:42 AM 46.4°F 44.6°F 93% 30.37 in 3.0 miles South 8.1 mph - N/A   Overcast
11:53 AM 46.9°F 45.0°F 93% 30.38 in 3.0 miles South 5.8 mph - N/A   Overcast
12:53 PM 48.0°F 45.0°F 89% 30.38 in 3.0 miles South 6.9 mph - N/A   Overcast
1:53 PM 48.0°F 45.0°F 89% 30.38 in 4.0 miles South 4.6 mph - N/A   Overcast
2:53 PM 48.0°F 44.1°F 86% 30.38 in 4.0 miles South 5.8 mph - N/A   Overcast
3:51 PM 48.2°F 44.6°F 87% 30.37 in 6.0 miles SSE 4.6 mph - N/A   Overcast
3:53 PM 48.0°F 44.1°F 86% 30.38 in 6.0 miles SSE 3.5 mph - N/A   Overcast
4:53 PM 46.9°F 44.1°F 90% 30.38 in 6.0 miles Calm Calm - N/A   Overcast
5:01 PM 46.4°F 44.6°F 93% 30.37 in 6.0 miles SSE 3.5 mph - N/A   Overcast
5:53 PM 46.9°F 45.0°F 93% 30.38 in 6.0 miles South 3.5 mph - N/A   Overcast
6:53 PM 46.9°F 45.0°F 93% 30.37 in 6.0 miles South 3.5 mph - 0.01 in Rain Light Rain
7:53 PM 46.9°F 45.0°F 93% 30.36 in 7.0 miles SSE 3.5 mph - 0.00 in   Overcast
8:21 PM 46.4°F 44.6°F 93% 30.35 in 5.0 miles SSE 3.5 mph - N/A   Overcast
8:29 PM 46.4°F 44.6°F 93% 30.35 in 5.0 miles SSE 3.5 mph - N/A   Overcast
8:51 PM 46.4°F 44.6°F 93% 30.36 in 2.0 miles Calm Calm - 0.01 in Rain Light Rain
8:53 PM 46.9°F 45.0°F 93% 30.37 in 2.0 miles South 3.5 mph - 0.01 in Rain Light Rain
9:19 PM 46.4°F 46.4°F 100% 30.36 in 1.8 miles Calm Calm - 0.00 in Rain Light Rain
9:32 PM 46.4°F 46.4°F 100% 30.36 in 2.0 miles Calm Calm - 0.00 in   Overcast
9:53 PM 46.9°F 45.0°F 93% 30.37 in 1.5 miles Calm Calm - 0.01 in Rain Light Rain
10:28 PM 46.4°F 44.6°F 93% 30.36 in 3.0 miles Calm Calm - 0.02 in Rain Light Rain
10:50 PM 46.4°F 44.6°F 93% 30.36 in 2.0 miles Calm Calm - 0.02 in Rain Light Rain
10:53 PM 46.9°F 45.0°F 93% 30.37 in 1.8 miles Calm Calm - 0.02 in Rain Light Rain
11:02 PM 46.4°F 44.6°F 93% 30.36 in 2.5 miles SSW 3.5 mph - 0.01 in   Overcast
11:11 PM 46.4°F 44.6°F 93% 30.36 in 1.2 miles SSW 3.5 mph - 0.01 in   Overcast
11:24 PM 46.4°F 44.6°F 93% 30.36 in 1.5 miles Calm Calm - 0.01 in Rain Light Rain
11:33 PM 46.4°F 44.6°F 93% 30.36 in 1.2 miles Calm Calm - 0.01 in Rain Light Rain
11:50 PM 46.4°F 44.6°F 93% 30.37 in 0.8 miles WSW 3.5 mph - 0.01 in   Overcast
11:53 PM 46.0°F 45.0°F 96% 30.38 in 0.8 miles WSW 3.5 mph - 0.01 in   Overcast
Moon Phase
Jan. 30 Feb. 03 Feb. 10 Feb. 17 Feb. 25
Sunrise:07:38 AM (PST) Moon Rise:09:34 PM (PST)
Sunset:05:06 PM (PST) Moon Set:08:48 AM (PST)

Copyright © 2014 The Weather Underground, Inc.